• In Hungary
  • List of Countries
  • For 7 days
  • Water Temperature
  • Satellite Maps
  • Weather Map
  • News
  • Weather Widgets
  • user-avatar
    Login

    Hourly Weather Bredihino

    Today, 14 August, Tuesday

    Time Temperature Precipitation Wind Pressure Humidity
    00:00 +19°C° 0 mm 2 mps 749 mmHg 71%
    01:00 +18°C° 0 mm 2 mps 749 mmHg 73%
    02:00 +18°C° 0 mm 2 mps 749 mmHg 75%
    03:00 +18°C° 0 mm 1 mps 749 mmHg 77%
    04:00 +18°C° 0 mm 1 mps 749 mmHg 77%
    05:00 +18°C° 0 mm 1 mps 749 mmHg 77%
    06:00 +18°C° 0 mm 1 mps 749 mmHg 78%
    07:00 +20°C° 0 mm 1 mps 750 mmHg 71%
    08:00 +22°C° 0 mm 1 mps 750 mmHg 64%
    09:00 +23°C° 0 mm 1 mps 750 mmHg 57%
    10:00 +24°C° 0 mm 2 mps 750 mmHg 53%
    11:00 +25°C° 0 mm 2 mps 750 mmHg 48%
    12:00 +26°C° 0 mm 3 mps 750 mmHg 44%
    13:00 +27°C° 0 mm 3 mps 750 mmHg 44%
    14:00 +27°C° 0 mm 3 mps 750 mmHg 43%
    15:00 +27°C° 0 mm 3 mps 750 mmHg 42%
    16:00 +27°C° 0 mm 3 mps 751 mmHg 45%
    17:00 +26°C° 0 mm 3 mps 751 mmHg 49%
    18:00 +26°C° 0 mm 2 mps 751 mmHg 52%
    19:00 +24°C° 0 mm 2 mps 751 mmHg 57%
    20:00 +21°C° 0 mm 2 mps 751 mmHg 61%
    21:00 +21°C° 0 mm 1 mps 751 mmHg 66%
    22:00 +20°C° 0 mm 1 mps 751 mmHg 67%
    23:00 +20°C° 0 mm 1 mps 752 mmHg 69%

    Tomorrow, 15 August, Wednesday

    Time Temperature Precipitation Wind Pressure Humidity
    00:00 +19°C° 0 mm 1 mps 752 mmHg 71%
    01:00 +19°C° 0 mm 1 mps 752 mmHg 72%
    02:00 +18°C° 0 mm 1 mps 752 mmHg 73%
    03:00 +18°C° 0 mm 1 mps 752 mmHg 74%
    04:00 +18°C° 0 mm 1 mps 752 mmHg 74%
    05:00 +18°C° 0 mm 1 mps 752 mmHg 75%
    06:00 +17°C° 0 mm 2 mps 752 mmHg 75%
    07:00 +19°C° 0 mm 2 mps 752 mmHg 69%
    08:00 +21°C° 0 mm 3 mps 753 mmHg 62%
    09:00 +24°C° 0 mm 3 mps 753 mmHg 56%
    10:00 +26°C° 0 mm 3 mps 753 mmHg 52%
    11:00 +27°C° 0 mm 3 mps 752 mmHg 48%
    12:00 +28°C° 0 mm 3 mps 752 mmHg 44%
    13:00 +29°C° 0 mm 3 mps 752 mmHg 43%
    14:00 +29°C° 0 mm 3 mps 752 mmHg 42%
    15:00 +30°C° 0 mm 3 mps 752 mmHg 41%
    16:00 +29°C° 0 mm 3 mps 751 mmHg 44%
    17:00 +29°C° 0 mm 3 mps 751 mmHg 47%
    18:00 +29°C° 0 mm 2 mps 751 mmHg 50%
    19:00 +27°C° 0 mm 2 mps 751 mmHg 52%
    20:00 +25°C° 0 mm 3 mps 751 mmHg 55%
    21:00 +22°C° 0 mm 3 mps 751 mmHg 58%
    22:00 +22°C° 0 mm 3 mps 751 mmHg 59%
    23:00 +21°C° 0 mm 3 mps 751 mmHg 59%

    Day after tomorrow, 16 August, Thursday

    Time Temperature Precipitation Wind Pressure Humidity
    00:00 +21°C° 0 mm 3 mps 751 mmHg 60%
    01:00 +21°C° 0 mm 3 mps 751 mmHg 60%
    02:00 +20°C° 0 mm 3 mps 751 mmHg 61%
    03:00 +20°C° 0 mm 3 mps 751 mmHg 61%
    04:00 +20°C° 0 mm 3 mps 751 mmHg 61%
    05:00 +20°C° 0 mm 3 mps 751 mmHg 62%
    06:00 +20°C° 0 mm 3 mps 751 mmHg 62%
    07:00 +22°C° 0 mm 3 mps 751 mmHg 59%
    08:00 +23°C° 0 mm 4 mps 751 mmHg 56%
    09:00 +26°C° 0 mm 4 mps 751 mmHg 53%
    10:00 +28°C° 0 mm 4 mps 751 mmHg 48%
    11:00 +29°C° 0 mm 4 mps 751 mmHg 43%
    12:00 +32°C° 0 mm 4 mps 751 mmHg 38%
    13:00 +31°C° 0 mm 3 mps 751 mmHg 37%
    14:00 +33°C° 0 mm 3 mps 750 mmHg 37%
    15:00 +33°C° 0 mm 3 mps 750 mmHg 36%
    16:00 +31°C° 0 mm 2 mps 750 mmHg 39%
    17:00 +30°C° 0 mm 2 mps 750 mmHg 41%
    18:00 +29°C° 0 mm 1 mps 750 mmHg 44%
    19:00 +28°C° 0 mm 1 mps 750 mmHg 44%
    20:00 +27°C° 0 mm 2 mps 750 mmHg 45%
    21:00 +26°C° 0 mm 2 mps 750 mmHg 46%
    22:00 +25°C° 0 mm 2 mps 750 mmHg 46%
    23:00 +25°C° 0 mm 2 mps 750 mmHg 47%

    17 August, Friday

    Time Temperature Precipitation Wind Pressure Humidity
    00:00 +24°C° 0 mm 2 mps 750 mmHg 48%
    01:00 +24°C° 0 mm 2 mps 750 mmHg 49%
    02:00 +24°C° 0 mm 2 mps 750 mmHg 51%
    03:00 +23°C° 0 mm 2 mps 750 mmHg 52%
    04:00 +23°C° 0 mm 1 mps 750 mmHg 54%
    05:00 +23°C° 0 mm 1 mps 750 mmHg 57%
    06:00 +23°C° 0 mm 1 mps 750 mmHg 59%
    07:00 +24°C° 0 mm 1 mps 750 mmHg 58%
    08:00 +25°C° 0 mm 1 mps 750 mmHg 56%
    09:00 +26°C° 0 mm 2 mps 751 mmHg 55%
    10:00 +27°C° 0.1 mm 2 mps 751 mmHg 56%
    11:00 +27°C° 0.1 mm 2 mps 750 mmHg 56%
    12:00 +27°C° 0.1 mm 3 mps 750 mmHg 57%
    13:00 +27°C° 0 mm 3 mps 750 mmHg 58%
    14:00 +27°C° 0 mm 3 mps 750 mmHg 58%
    15:00 +27°C° 0 mm 4 mps 750 mmHg 59%
    16:00 +27°C° 0 mm 3 mps 750 mmHg 61%
    17:00 +26°C° 0 mm 3 mps 750 mmHg 64%
    18:00 +26°C° 0 mm 3 mps 750 mmHg 66%
    19:00 +24°C° 0.2 mm 3 mps 751 mmHg 72%
    20:00 +22°C° 0.2 mm 3 mps 751 mmHg 78%
    21:00 +20°C° 0.2 mm 3 mps 751 mmHg 83%
    22:00 +20°C° 0 mm 3 mps 751 mmHg 85%
    23:00 +19°C° 0 mm 4 mps 751 mmHg 87%

    18 August, Saturday

    Time Temperature Precipitation Wind Pressure Humidity
    00:00 +18°C° 0 mm 4 mps 751 mmHg 88%
    01:00 +18°C° 0 mm 4 mps 752 mmHg 88%
    02:00 +17°C° 0 mm 4 mps 752 mmHg 89%
    03:00 +17°C° 0 mm 4 mps 752 mmHg 89%
    04:00 +17°C° 0 mm 4 mps 752 mmHg 88%
    05:00 +15°C° 0 mm 4 mps 753 mmHg 88%
    06:00 +15°C° 0 mm 4 mps 753 mmHg 88%
    07:00 +16°C° 0 mm 5 mps 753 mmHg 79%
    08:00 +19°C° 0 mm 5 mps 754 mmHg 70%
    09:00 +21°C° 0 mm 6 mps 754 mmHg 61%
    10:00 +21°C° 0 mm 6 mps 754 mmHg 56%
    11:00 +22°C° 0 mm 6 mps 754 mmHg 51%
    12:00 +23°C° 0 mm 6 mps 754 mmHg 45%
    13:00 +23°C° 0 mm 6 mps 754 mmHg 44%
    14:00 +25°C° 0 mm 5 mps 754 mmHg 43%
    15:00 +25°C° 0 mm 5 mps 754 mmHg 42%
    16:00 +23°C° 0 mm 5 mps 754 mmHg 46%
    17:00 +22°C° 0 mm 4 mps 754 mmHg 50%
    18:00 +22°C° 0 mm 4 mps 754 mmHg 53%
    19:00 +20°C° 0 mm 4 mps 754 mmHg 58%
    20:00 +18°C° 0 mm 3 mps 754 mmHg 64%
    21:00 +17°C° 0 mm 3 mps 755 mmHg 69%
    22:00 +16°C° 0 mm 3 mps 755 mmHg 71%
    23:00 +14°C° 0 mm 3 mps 755 mmHg 73%

    19 August, Sunday

    Time Temperature Precipitation Wind Pressure Humidity
    00:00 +14°C° 0 mm 3 mps 755 mmHg 75%
    01:00 +13°C° 0 mm 3 mps 755 mmHg 78%
    02:00 +13°C° 0 mm 3 mps 755 mmHg 80%
    03:00 +12°C° 0 mm 3 mps 755 mmHg 82%
    04:00 +13°C° 0 mm 2 mps 755 mmHg 83%
    05:00 +13°C° 0 mm 2 mps 755 mmHg 83%
    06:00 +13°C° 0 mm 2 mps 756 mmHg 84%
    07:00 +15°C° 0 mm 2 mps 756 mmHg 76%
    08:00 +17°C° 0 mm 3 mps 756 mmHg 68%
    09:00 +19°C° 0 mm 3 mps 756 mmHg 60%
    10:00 +21°C° 0 mm 3 mps 755 mmHg 54%
    11:00 +22°C° 0 mm 3 mps 755 mmHg 48%
    12:00 +24°C° 0 mm 3 mps 755 mmHg 43%
    13:00 +24°C° 0 mm 3 mps 755 mmHg 41%
    14:00 +25°C° 0 mm 2 mps 754 mmHg 39%
    15:00 +25°C° 0 mm 2 mps 754 mmHg 37%
    16:00 +25°C° 0 mm 2 mps 754 mmHg 40%
    17:00 +25°C° 0 mm 2 mps 754 mmHg 43%
    18:00 +24°C° 0 mm 2 mps 753 mmHg 46%
    19:00 +21°C° 0 mm 2 mps 753 mmHg 49%
    20:00 +19°C° 0 mm 2 mps 754 mmHg 53%
    21:00 +18°C° 0 mm 2 mps 754 mmHg 56%
    22:00 +17°C° 0 mm 2 mps 754 mmHg 58%
    23:00 +16°C° 0 mm 2 mps 754 mmHg 60%
    Show more